When you browse on this site, cookies collect data to enhance your experience and personalize the content and advertising you see.
Visit our Privacy Policy to learn more. By continuing to use the site, you agree to this use of cookies and data.
  • In Hungary
  • List of Countries
  • For 7 days
  • Water Temperature
  • Weather Map
  • News
  • Weather Widgets
  • user-avatar
    Login

    Hourly Weather Yarcevo

    Today, 19 January, Sunday

    Time Temperature Precipitation Wind Pressure Humidity
    00:00 -3°C° 0 mm 4 mps 747 mmHg 85%
    01:00 -3°C° 0 mm 4 mps 748 mmHg 86%
    02:00 -3°C° 0 mm 4 mps 749 mmHg 91%
    03:00 -3°C° 0 mm 4 mps 749 mmHg 91%
    04:00 -3°C° 0 mm 4 mps 749 mmHg 91%
    05:00 -3°C° 0 mm 4 mps 749 mmHg 91%
    06:00 -2°C° 0 mm 4 mps 749 mmHg 90%
    07:00 -2°C° 0 mm 4 mps 750 mmHg 90%
    08:00 -1°C° 0 mm 4 mps 750 mmHg 89%
    09:00 -1°C° 0 mm 4 mps 750 mmHg 88%
    10:00 -1°C° 0 mm 4 mps 750 mmHg 86%
    11:00 -1°C° 0 mm 4 mps 750 mmHg 84%
    12:00 -1°C° 0 mm 4 mps 750 mmHg 83%
    13:00 -1°C° 0 mm 4 mps 750 mmHg 81%
    14:00 -1°C° 0 mm 4 mps 751 mmHg 80%
    15:00 -1°C° 0 mm 4 mps 751 mmHg 81%
    16:00 -1°C° 0 mm 4 mps 750 mmHg 83%
    17:00 -1°C° 0 mm 4 mps 750 mmHg 84%
    18:00 -1°C° 0 mm 4 mps 750 mmHg 87%
    19:00 -1°C° 0 mm 5 mps 750 mmHg 90%
    20:00 -1°C° 0 mm 5 mps 750 mmHg 93%
    21:00 -1°C° 0 mm 5 mps 750 mmHg 92%
    22:00 0°C° 0 mm 5 mps 750 mmHg 90%
    23:00 0°C° 0 mm 5 mps 749 mmHg 89%

    Tomorrow, 20 January, Monday

    Time Temperature Precipitation Wind Pressure Humidity
    00:00 0°C° 0 mm 5 mps 750 mmHg 88%
    01:00 0°C° 0 mm 5 mps 750 mmHg 86%
    02:00 0°C° 0 mm 5 mps 750 mmHg 85%
    03:00 0°C° 0.2 mm 5 mps 750 mmHg 88%
    04:00 -1°C° 0.2 mm 5 mps 750 mmHg 92%
    05:00 -1°C° 0.2 mm 5 mps 750 mmHg 95%
    06:00 -1°C° 0.2 mm 4 mps 750 mmHg 95%
    07:00 -1°C° 0.2 mm 4 mps 750 mmHg 94%
    08:00 -1°C° 0.2 mm 3 mps 751 mmHg 93%
    09:00 0°C° 0 mm 3 mps 751 mmHg 93%
    10:00 -1°C° 0 mm 4 mps 751 mmHg 93%
    11:00 -1°C° 0 mm 4 mps 751 mmHg 93%
    12:00 -1°C° 0.1 mm 4 mps 750 mmHg 92%
    13:00 -1°C° 0.1 mm 4 mps 750 mmHg 92%
    14:00 -1°C° 0.1 mm 4 mps 750 mmHg 91%
    15:00 -1°C° 0 mm 4 mps 750 mmHg 90%
    16:00 -1°C° 0 mm 4 mps 749 mmHg 89%
    17:00 0°C° 0 mm 4 mps 749 mmHg 87%
    18:00 -1°C° 0 mm 5 mps 748 mmHg 85%
    19:00 -1°C° 0 mm 5 mps 748 mmHg 83%
    20:00 -2°C° 0 mm 6 mps 748 mmHg 80%
    21:00 -1°C° 0 mm 5 mps 747 mmHg 81%
    22:00 -1°C° 0 mm 5 mps 747 mmHg 82%
    23:00 -2°C° 0 mm 5 mps 746 mmHg 82%

    Day after tomorrow, 21 January, Tuesday

    Time Temperature Precipitation Wind Pressure Humidity
    00:00 -1°C° 0 mm 5 mps 745 mmHg 84%
    01:00 -1°C° 0 mm 5 mps 744 mmHg 86%
    02:00 -1°C° 0 mm 5 mps 744 mmHg 88%
    03:00 -2°C° 0.6 mm 6 mps 742 mmHg 90%
    04:00 -2°C° 0.6 mm 6 mps 741 mmHg 92%
    05:00 -2°C° 0.6 mm 6 mps 740 mmHg 93%
    06:00 -1°C° 0.2 mm 7 mps 740 mmHg 91%
    07:00 -1°C° 0.2 mm 7 mps 739 mmHg 88%
    08:00 0°C° 0.2 mm 7 mps 738 mmHg 85%
    09:00 +2°C° 0 mm 7 mps 738 mmHg 85%
    10:00 +2°C° 0 mm 7 mps 737 mmHg 85%
    11:00 +3°C° 0 mm 7 mps 737 mmHg 84%
    12:00 +3°C° 0.1 mm 6 mps 737 mmHg 84%
    13:00 +3°C° 0.1 mm 6 mps 736 mmHg 84%
    14:00 +3°C° 0.1 mm 6 mps 736 mmHg 83%
    15:00 +2°C° 0.1 mm 5 mps 736 mmHg 83%
    16:00 +2°C° 0.1 mm 5 mps 735 mmHg 83%
    17:00 +1°C° 0.1 mm 4 mps 735 mmHg 83%
    18:00 +1°C° 0.2 mm 4 mps 735 mmHg 87%
    19:00 0°C° 0.2 mm 5 mps 734 mmHg 91%
    20:00 0°C° 0.2 mm 5 mps 734 mmHg 94%
    21:00 -1°C° 0.1 mm 5 mps 734 mmHg 91%
    22:00 -1°C° 0.1 mm 5 mps 733 mmHg 87%
    23:00 -1°C° 0.1 mm 5 mps 733 mmHg 84%

    22 January, Wednesday

    Time Temperature Precipitation Wind Pressure Humidity
    00:00 -2°C° 0 mm 5 mps 733 mmHg 82%
    01:00 -2°C° 0 mm 5 mps 734 mmHg 81%
    02:00 -4°C° 0 mm 5 mps 734 mmHg 79%
    03:00 -4°C° 0 mm 5 mps 734 mmHg 78%
    04:00 -4°C° 0 mm 5 mps 733 mmHg 77%
    05:00 -4°C° 0 mm 5 mps 733 mmHg 77%
    06:00 -4°C° 0 mm 5 mps 732 mmHg 77%
    07:00 -4°C° 0 mm 5 mps 732 mmHg 77%
    08:00 -4°C° 0 mm 5 mps 732 mmHg 77%
    09:00 -4°C° 0.1 mm 5 mps 732 mmHg 76%
    10:00 -4°C° 0.1 mm 5 mps 732 mmHg 74%
    11:00 -2°C° 0.1 mm 5 mps 732 mmHg 73%
    12:00 -4°C° 0 mm 5 mps 732 mmHg 73%
    13:00 -4°C° 0 mm 5 mps 731 mmHg 73%
    14:00 -4°C° 0 mm 5 mps 731 mmHg 73%
    15:00 -4°C° 0.1 mm 5 mps 732 mmHg 76%
    16:00 -3°C° 0.1 mm 4 mps 732 mmHg 79%
    17:00 -4°C° 0.1 mm 4 mps 732 mmHg 82%
    18:00 -4°C° 0 mm 4 mps 732 mmHg 81%
    19:00 -5°C° 0 mm 5 mps 733 mmHg 80%
    20:00 -5°C° 0 mm 5 mps 733 mmHg 79%
    21:00 -5°C° 0.1 mm 5 mps 734 mmHg 80%
    22:00 -6°C° 0.1 mm 5 mps 734 mmHg 81%
    23:00 -6°C° 0.1 mm 5 mps 735 mmHg 81%

    23 January, Thursday

    Time Temperature Precipitation Wind Pressure Humidity
    00:00 -7°C° 0.1 mm 5 mps 735 mmHg 76%
    01:00 -9°C° 0.1 mm 6 mps 736 mmHg 71%
    02:00 -9°C° 0.1 mm 6 mps 737 mmHg 66%
    03:00 -10°C° 0 mm 6 mps 737 mmHg 65%
    04:00 -10°C° 0 mm 6 mps 738 mmHg 64%
    05:00 -10°C° 0 mm 6 mps 738 mmHg 62%
    06:00 -10°C° 0 mm 6 mps 738 mmHg 63%
    07:00 -10°C° 0 mm 6 mps 739 mmHg 64%
    08:00 -10°C° 0 mm 5 mps 739 mmHg 65%
    09:00 -10°C° 0 mm 5 mps 739 mmHg 63%
    10:00 -10°C° 0 mm 6 mps 740 mmHg 61%
    11:00 -10°C° 0 mm 6 mps 740 mmHg 59%
    12:00 -10°C° 0 mm 6 mps 741 mmHg 59%
    13:00 -10°C° 0 mm 5 mps 741 mmHg 59%
    14:00 -10°C° 0 mm 5 mps 741 mmHg 59%
    15:00 -11°C° 0 mm 5 mps 742 mmHg 60%
    16:00 -10°C° 0 mm 4 mps 742 mmHg 61%
    17:00 -10°C° 0 mm 4 mps 742 mmHg 63%
    18:00 -9°C° 0 mm 3 mps 742 mmHg 64%
    19:00 -10°C° 0 mm 3 mps 742 mmHg 65%
    20:00 -10°C° 0 mm 3 mps 743 mmHg 66%
    21:00 -9°C° 0 mm 2 mps 742 mmHg 67%
    22:00 -9°C° 0 mm 2 mps 742 mmHg 68%
    23:00 -9°C° 0 mm 2 mps 742 mmHg 69%

    24 January, Friday

    Time Temperature Precipitation Wind Pressure Humidity
    00:00 -8°C° 0 mm 2 mps 741 mmHg 73%
    01:00 -8°C° 0 mm 3 mps 740 mmHg 78%
    02:00 -9°C° 0 mm 4 mps 740 mmHg 82%
    03:00 -8°C° 0.1 mm 4 mps 738 mmHg 86%
    04:00 -8°C° 0.1 mm 4 mps 737 mmHg 89%
    05:00 -7°C° 0.1 mm 5 mps 736 mmHg 93%
    06:00 -7°C° 0.4 mm 5 mps 735 mmHg 93%
    07:00 -6°C° 0.4 mm 5 mps 733 mmHg 93%
    08:00 -6°C° 0.4 mm 5 mps 732 mmHg 93%
    09:00 -5°C° 0.4 mm 5 mps 732 mmHg 94%
    10:00 -4°C° 0.4 mm 4 mps 731 mmHg 94%
    11:00 -3°C° 0.4 mm 4 mps 731 mmHg 95%
    12:00 -2°C° 0.1 mm 4 mps 731 mmHg 92%
    13:00 -2°C° 0.1 mm 4 mps 730 mmHg 89%
    14:00 -1°C° 0.1 mm 4 mps 730 mmHg 86%
    15:00 -2°C° 0 mm 5 mps 731 mmHg 86%
    16:00 -4°C° 0 mm 5 mps 731 mmHg 85%
    17:00 -4°C° 0 mm 5 mps 732 mmHg 84%
    18:00 -4°C° 0 mm 5 mps 732 mmHg 84%
    19:00 -4°C° 0 mm 6 mps 732 mmHg 83%
    20:00 -5°C° 0 mm 6 mps 732 mmHg 82%
    21:00 -5°C° 0 mm 6 mps 733 mmHg 82%
    22:00 -5°C° 0 mm 6 mps 733 mmHg 81%
    23:00 -6°C° 0 mm 5 mps 733 mmHg 81%
    Show more